Regional Weather Roundup
Issued by NWS

Home | Current Version | Previous Version | Graphics & Text | Print | Product List | Glossary On
Versions: 1 2 3 4 5 6 7 8 9 10 11 12 13 14 15 16 17 18 19 20 21 22 23 24 25 26 27 28 29 30 31 32 33 34 35 36 37 38 39 40 41 42 43 44 45 46 47 48 49 50
000
ASUS45 KBOU 042310
RWRCO

WEATHER ROUNDUP FOR COLORADO
NATIONAL WEATHER SERVICE DENVER/BOULDER CO
500 PM MDT SAT JUL 04 2015

NOTE: "FAIR" INDICATES FEW OR NO CLOUDS BELOW 12000 FEET WITH NO
SIGNIFICANT WEATHER AND/OR OBSTRUCTIONS TO VISIBILITY.

COZ001>005-013-030-031-050000-
...NORTHWEST COLORADO...

CITY           SKY/WX    TMP DP  RH WIND       PRES   REMARKS
CRAIG          CLOUDY    74  54  49 SW9       30.09R
HAYDEN         CLOUDY    73  45  35 W8        30.12R
MEEKER         CLOUDY    85  49  28 VRB7      30.07S
MOUNT WERNER   NOT AVBL
STEAMBOAT SPGS CLOUDY    73  48  42 CALM      30.12S
WALDEN         CLOUDY    57  46  67 NW25      30.25R
$$

COZ006>008-011-050000-
...WEST CENTRAL VALLEYS...

CITY           SKY/WX    TMP DP  RH WIND       PRES   REMARKS
GRAND JUNCTION PTSUNNY   92  49  22 SW9       29.91F
MONTROSE       PTSUNNY   84  47  27 SW13      30.04R
EAGLE          MOSUNNY   75  48  38 W8        30.11F
RIFLE          PTSUNNY   91  47  21 MISG      29.96F
DELTA          PTSUNNY   91  47  22 SW5       29.97F
NUCLA          PTSUNNY   86  45  23 SE14      30.07F
$$

COZ017>023-064>068-050000-
...SOUTHWEST COLORADO...

CITY           SKY/WX    TMP DP  RH WIND       PRES   REMARKS
DURANGO        PTSUNNY   77  49  37 S9        30.11R THUNDER
CORTEZ         MOSUNNY   83  53  35 W7        30.04F
PAGOSA SPRINGS LGT RAIN  61  53  74 N5        30.26R
TELLURIDE      CLOUDY    61  52  72 E8        30.37F
WOLF CREEK PAS NOT AVBL
$$

COZ009-010-012-014-032>034-037-058>063-050000-
...CENTRAL COLORADO...

CITY           SKY/WX    TMP DP  RH WIND       PRES   REMARKS
ASPEN          LGT RAIN  70  53  54 SW7       30.20S
BUENA VISTA    CLOUDY    69  46  44 CALM      30.25R
COPPER MTN     PTSUNNY   64  32  29 W13       30.56F
BERTHOUD PASS  CLOUDY    52  41  66 MISG      30.61S
COTTONWOOD PAS NOT AVBL
GUNNISON       PTSUNNY   79  43  27 S9        30.21S
KREMMLING      PTSUNNY   79  36  21 W12G20    30.16S
LEADVILLE      CLOUDY    65  42  43 N9        30.36F
MONARCH PASS   LGT RAIN  55  39  54 NE5       30.66R
SALIDA         PTSUNNY   75  49  40 CALM      30.27R
SUNLIGHT       PTSUNNY   68  45  42 E5        30.48F THUNDER
WILKERSON PASS CLOUDY    57  36  44 CALM      30.54R
$$

COZ069>075-050000-
...SAN LUIS VALLEY/SANGRE DE CRISTO MOUNTAINS...

CITY           SKY/WX    TMP DP  RH WIND       PRES   REMARKS
ALAMOSA        PTSUNNY   77  46  33 W16       30.17S
LA VETA PASS   PTSUNNY   63  37  39 MISG      30.42F
SAGUACHE       PTSUNNY   66  55  68 N13       30.23F
$$

COZ035-036-038>040-050000-
...NORTHERN COLORADO FRONT RANGE...

CITY           SKY/WX    TMP DP  RH WIND       PRES   REMARKS
DENVER INTL AP PTSUNNY   88  40  18 N8G28     29.97S
DMNS CITY PARK   N/A     79  47  32 W20G35    30.03R
AURORA         PTSUNNY   85  49  28 N8        30.00R
FRONT RANGE AP PTSUNNY   90  46  22 NE8       29.99S
ERIE MUNI ARPT PTSUNNY   90  48  23 SW6       29.95F
BOULDER MUN AP PTSUNNY   82  55  39 SW10      29.98S
CENTENNIAL     CLOUDY    87  44  22 CALM      30.02R
BROOMFIELD     PTSUNNY   75  55  50 VRB8      30.01S
FORT COLLINS   PTSUNNY   82  54  36 NW6       29.93S
LONGMONT       PTSUNNY   92  52  25 SW12      29.96S
$$

COZ041-046-047-076>085-087-088-050000-
...PIKES PEAK/PALMER DIVIDE AND SOUTHERN FOOTHILLS...

CITY           SKY/WX    TMP DP  RH WIND       PRES   REMARKS
COLO. SPRINGS  PTSUNNY   84  45  25 S14       30.07S
A. F. ACADEMY  PTSUNNY   84  45  25 S5        30.08F
ELLICOTT       PTSUNNY  N/A N/A N/A SW5       30.05F
FALCON         PTSUNNY   82  43  25 CALM      30.13S
FORT CARSON    PTSUNNY   82  49  32 SW15G21   30.04R
LIMON          MOSUNNY   85  58  39 SE9       29.97F
MONUMENT HILL  NOT AVBL
TRINIDAD       LGT RAIN  83  52  34 W12       30.03R
$$

COZ042>045-048>051-090-091-050000-
...NORTHEAST COLORADO...

CITY           SKY/WX    TMP DP  RH WIND       PRES   REMARKS
GREELEY ARPT   PTSUNNY   90  61  37 SE6       29.90F
AKRON          SUNNY     89  53  29 SE14      29.89F
BURLINGTON     SUNNY     93  51  23 S12G21    29.91F
WRAY           MOSUNNY   98  50  19 SE15G23   29.85F
STERLING       MOSUNNY   97  55  24 SE15        N/A
HOLYOKE        MOSUNNY   95  55  26 SE14G23   29.86F
FORT MORGAN    SUNNY     93  46  20 CALM      29.89S
$$

COZ086-089-092>099-050000-
...SOUTHEAST COLORADO...

CITY           SKY/WX    TMP DP  RH WIND       PRES   REMARKS
PUEBLO         CLOUDY    90  50  25 NW13      29.94S
LA JUNTA       MOSUNNY   97  47  18 CALM      29.87F
LAMAR          MOSUNNY   96  53  23 S6        29.82F
SPRINGFIELD      N/A     84  58  40 S24G30    29.91F
$$



USA.gov is the U.S. government's official web portal to all federal, state and local government web resources and services.